Location: Allens Landing
(37.8284°N, 89.7284°W)
Time: 21:42:40
(UTC+00:00)

Courier 1B - Pass Details

Date: 12 November 2024
Orbit: 962 x 1208 km, 28.3° (Epoch: 03 December)

Event Time Altitude Azimuth Distance (km) Brightness Sun altitude
Rises 00:28:54 0° 261° (W) 3,642 12.2 -19.7°
Reaches altitude 10° 00:31:51 10° 251° (WSW) 2,708 11.0 -20.2°
Maximum altitude 00:37:20 29° 193° (SSW) 1,730 9.0 -21.3°
Enters shadow 00:41:38 15° 144° (SE) 2,413 9.3 -22.2°
